TimeCST,TemperatureF,Dew PointF,Humidity,Sea Level PressureIn,VisibilityMPH,Wind Direction,Wind SpeedMPH,Gust SpeedMPH,PrecipitationIn,Events,Conditions,WindDirDegrees,DateUTC
12:52 AM,39.0,30.0,70,30.25,10.0,South,5.8,-,N/A,,Mostly Cloudy,170,2012-11-15 06:52:00
1:52 AM,37.0,28.9,73,30.25,10.0,SSE,5.8,-,N/A,,Mostly Cloudy,160,2012-11-15 07:52:00
2:52 AM,36.0,28.9,76,30.24,10.0,South,8.1,-,N/A,,Scattered Clouds,170,2012-11-15 08:52:00
3:52 AM,35.1,28.0,76,30.24,10.0,South,3.5,-,N/A,,Scattered Clouds,180,2012-11-15 09:52:00
4:52 AM,33.1,28.0,82,30.25,10.0,SSE,6.9,-,N/A,,Scattered Clouds,150,2012-11-15 10:52:00
5:52 AM,32.0,27.0,82,30.25,10.0,SSE,5.8,-,N/A,,Scattered Clouds,160,2012-11-15 11:52:00
6:52 AM,34.0,28.0,79,30.27,10.0,SSE,5.8,-,N/A,,Scattered Clouds,150,2012-11-15 12:52:00
7:52 AM,36.0,30.0,79,30.27,10.0,SSE,5.8,-,N/A,,Partly Cloudy,150,2012-11-15 13:52:00
8:52 AM,44.1,30.9,60,30.29,10.0,SSE,9.2,-,N/A,,Partly Cloudy,150,2012-11-15 14:52:00
9:52 AM,48.9,32.0,52,30.29,10.0,SSE,11.5,-,N/A,,Partly Cloudy,150,2012-11-15 15:52:00
10:52 AM,55.0,32.0,42,30.28,10.0,South,17.3,21.9,N/A,,Partly Cloudy,180,2012-11-15 16:52:00
11:52 AM,57.9,34.0,41,30.27,10.0,South,15.0,-,N/A,,Scattered Clouds,180,2012-11-15 17:52:00
12:52 PM,61.0,36.0,39,30.25,10.0,SSE,11.5,-,N/A,,Partly Cloudy,150,2012-11-15 18:52:00
1:52 PM,63.0,37.0,38,30.22,10.0,SSE,11.5,-,N/A,,Partly Cloudy,160,2012-11-15 19:52:00
2:52 PM,63.0,37.0,38,30.22,10.0,South,4.6,-,N/A,,Partly Cloudy,170,2012-11-15 20:52:00
3:52 PM,62.1,39.0,43,30.23,10.0,SE,9.2,-,N/A,,Partly Cloudy,130,2012-11-15 21:52:00
4:52 PM,57.9,39.9,51,30.24,10.0,SSE,8.1,-,N/A,,Partly Cloudy,150,2012-11-15 22:52:00
5:52 PM,52.0,39.0,61,30.28,10.0,SSE,4.6,-,N/A,,Partly Cloudy,150,2012-11-15 23:52:00
6:52 PM,48.9,37.9,66,30.30,10.0,SSW,3.5,-,N/A,,Partly Cloudy,210,2012-11-16 00:52:00
7:52 PM,52.0,39.9,63,30.32,10.0,Calm,Calm,-,N/A,,Overcast,0,2012-11-16 01:52:00
8:52 PM,48.2,41.0,76,30.32,10.0,SSE,4.6,-,N/A,,Scattered Clouds,150,2012-11-16 02:52:00
9:52 PM,45.0,36.0,71,30.34,10.0,SE,6.9,-,N/A,,Scattered Clouds,140,2012-11-16 03:52:00
10:52 PM,43.0,35.1,74,30.34,10.0,SSW,5.8,-,N/A,,Clear,200,2012-11-16 04:52:00
11:52 PM,42.1,35.1,76,30.35,10.0,ENE,5.8,-,N/A,,Clear,60,2012-11-16 05:52:00